Regional Weather Roundup
Issued by NWS

Home | Current Version | Previous Version | Text Only | Print | Product List | Glossary On
Versions: 1 2 3 4 5 6 7 8 9 10 11 12 13 14 15 16 17 18 19 20 21 22 23 24 25 26 27 28 29 30 31 32 33 34 35 36 37 38 39 40 41 42 43 44 45 46 47 48 49 50
000
ASUS43 KBIS 281410
RWRND

NORTH DAKOTA REGIONAL WEATHER ROUNDUP
NATIONAL WEATHER SERVICE BISMARCK ND
900 AM CDT SUN AUG 28 2016

NOTE: "FAIR" INDICATES FEW OR NO CLOUDS BELOW 12,000 FEET WITH NO
SIGNIFICANT WEATHER AND/OR OBSTRUCTIONS TO VISIBILITY.


NDZ001>003-009>011-017-281500-
NORTHWEST NORTH DAKOTA

CITY           SKY/WX    TMP DP  RH WIND       PRES   REMARKS
WILLISTON      SUNNY     67  53  61 SW3       29.85R
MINOT          SUNNY     69  56  62 CALM      29.87R
MINOT AFB      SUNNY     64  54  69 S5        29.86S
$$

NDZ018>021-031>035-040>046-281500-
SOUTHWEST NORTH DAKOTA

CITY           SKY/WX    TMP DP  RH WIND       PRES   REMARKS
BISMARCK       SUNNY     65  61  87 CALM      29.91S
DICKINSON      SUNNY     60  54  80 S5        29.89S
GARRISON         N/A     66  59  78 SE6       29.90R
HETTINGER ARPT SUNNY     60  55  83 CALM      29.93R
$$

NDZ004>008-012>016-024-026-027-054-281500-
NORTHEAST NORTH DAKOTA

CITY           SKY/WX    TMP DP  RH WIND       PRES   REMARKS
GRAND FORKS    SUNNY     64  60  87 S12       29.99S
GRND FRKS AFB  SUNNY     64  61  91 S8        29.99S
DEVILS LAKE    SUNNY     66  63  90 SE15      29.95S
$$

NDZ022-023-025-028>030-036>039-047>053-281500-
SOUTHEAST NORTH DAKOTA

CITY           SKY/WX    TMP DP  RH WIND       PRES   REMARKS
FARGO          SUNNY     68  61  78 S14       30.01S
JAMESTOWN      CLOUDY    65  62  90 SE12      29.95F
$$





USA.gov is the U.S. government's official web portal to all federal, state and local government web resources and services.